Wind_Speed
6 6 6 7 7 7 14 8 3 6 5 4 7 6 10 11 6 6 6 3 9 21 21 25 25 24 21 21 24 26 27 25 24 25 24 22 22 22 22 22 18 16 14 13 13 12 13 14 15
4 5 8 3 8 13 12 12 11 3 2 4 6 8 7 3 7 4 2 3 14 21 19 21 25 24 22 22 25 28 27 26 25 24 23 22 22 21 21 20 17 14 13 12 12 13 13 14 14
5 8 7 6 12 16 14 8 13 5 2 4 5 4 5 6 9 7 4 10 18 19 20 20 27 24 22 22 26 30 29 26 25 24 22 21 21 20 20 18 16 13 12 12 13 14 15 15 14
9 7 4 10 17 16 16 6 5 6 4 2 7 5 3 3 8 8 5 13 19 18 18 21 29 26 23 22 27 28 29 26 25 23 21 20 20 19 18 17 15 12 12 13 14 14 15 14 12
10 4 10 14 21 19 5 10 10 9 9 8 7 7 10 5 5 2 7 13 17 18 17 19 28 28 25 26 26 27 26 25 24 22 20 19 19 19 18 16 14 12 12 13 13 14 14 13 12
7 6 8 16 20 14 10 13 14 13 14 13 11 10 3 4 3 2 7 11 16 18 17 18 25 27 26 25 25 25 25 24 23 21 19 18 18 18 18 16 15 13 13 13 13 14 13 13 12
14 10 14 16 12 12 9 7 12 13 10 11 7 11 3 4 4 3 7 11 15 18 18 18 18 23 25 24 24 24 23 22 21 20 19 18 18 17 17 16 14 13 13 13 13 13 13 13 13
8 8 16 13 13 16 4 8 4 8 9 5 7 7 6 6 2 3 8 11 16 18 17 18 18 18 19 19 22 22 22 22 21 19 18 18 19 17 15 14 13 12 12 14 14 14 14 14 14
6 8 13 17 11 11 4 7 4 2 7 6 9 8 6 5 2 3 8 12 15 17 17 17 18 18 19 18 18 21 21 20 19 18 19 18 15 16 16 15 15 13 12 13 14 15 15 15 15
12 11 14 8 7 8 4 6 6 5 9 11 10 14 14 5 7 6 8 13 16 16 16 16 17 18 18 18 17 19 18 18 18 17 18 17 17 16 16 15 17 14 14 13 14 15 16 17 13
13 14 11 8 9 7 10 8 5 10 12 12 14 13 10 6 7 10 13 11 13 14 14 15 16 17 18 18 18 21 21 20 19 18 17 17 16 15 17 15 15 14 14 12 14 14 15 15 15
10 16 10 8 4 8 9 6 8 9 12 11 13 14 10 11 10 12 12 12 13 14 14 15 16 17 18 18 19 18 19 19 18 19 19 17 16 16 15 16 15 16 15 15 14 13 15 14 15
17 12 10 11 9 9 8 11 10 12 11 13 11 11 13 12 12 13 13 9 11 12 12 14 15 16 16 17 16 17 17 17 16 16 18 18 17 16 16 15 15 15 15 15 15 15 14 14 15
8 15 11 9 11 8 10 9 4 12 14 12 12 13 13 12 12 12 14 13 9 6 7 10 11 14 15 16 15 15 12 12 15 16 16 18 17 16 15 15 14 15 14 14 14 14 14 14 15
8 12 15 15 14 9 10 12 11 10 5 8 10 12 10 10 13 15 19 17 11 6 5 8 9 11 14 15 16 17 17 17 16 16 17 17 20 16 15 15 15 15 14 14 13 13 14 13 14
12 13 14 16 11 8 11 5 7 3 8 10 10 11 10 9 15 17 18 16 19 15 11 8 7 7 11 13 16 18 19 18 19 18 18 19 20 18 14 16 16 15 15 16 15 16 16 15 14
11 12 15 12 10 8 12 4 5 7 5 8 9 10 12 12 11 16 17 21 22 20 17 14 11 9 7 9 15 18 20 20 19 18 19 21 20 17 14 17 17 15 17 18 18 18 19 16 16
13 14 10 10 10 10 11 13 10 6 6 9 10 12 11 12 13 13 15 20 21 14 11 10 15 19 3 7 12 15 16 19 21 22 20 18 19 22 12 24 21 19 17 21 18 18 19 18 14
7 8 10 7 4 8 11 7 9 2 6 8 9 12 12 10 3 3 7 13 7 6 6 6 3 7 13 13 14 13 15 17 17 21 21 19 21 20 32 33 22 23 15 22 22 19 20 19 15
13 13 13 11 10 11 10 10 7 4 2 2 4 9 13 8 6 4 5 5 5 3 5 3 2 2 7 14 13 15 13 16 16 17 16 17 18 20 23 25 23 20 20 19 19 19 17 19 18
15 15 11 11 6 11 9 13 12 10 6 4 4 3 4 7 8 7 8 9 10 9 9 8 7 5 3 8 10 11 12 11 10 13 14 14 17 21 26 26 26 19 23 22 23 22 22 20 18
17 13 15 13 12 13 15 12 16 10 8 4 6 6 9 11 9 10 10 13 14 15 15 15 14 12 9 5 3 6 8 5 3 2 3 2 5 10 15 16 15 15 18 20 20 25 27 20 27
18 15 13 13 15 14 12 9 4 10 10 7 8 9 10 11 10 10 12 15 16 16 16 15 14 14 13 12 10 7 4 3 2 2 5 5 5 6 8 11 11 14 19 20 24 25 25 27 28
13 10 8 9 11 13 17 11 12 12 12 9 9 9 10 11 11 12 14 14 14 14 13 12 11 11 12 10 9 9 8 7 6 6 7 6 8 10 9 10 12 15 18 21 24 24 27 26 25
13 13 9 10 10 11 12 8 14 9 8 10 11 12 12 11 10 10 10 11 11 10 10 8 9 8 8 7 7 7 7 7 7 9 10 11 12 13 11 13 14 15 17 20 23 25 26 26 28
17 17 10 9 9 12 10 9 4 7 4 12 12 12 11 10 9 8 8 8 9 9 10 10 10 9 11 11 11 9 10 10 12 12 14 16 18 19 18 19 20 21 21 21 23 27 30 31 31
12 13 9 8 5 8 8 5 7 8 9 12 13 12 10 9 7 7 7 8 9 11 11 12 12 11 11 13 13 13 13 14 16 17 18 19 20 23 23 24 25 25 27 26 26 29 31 31 33
9 9 8 8 9 12 10 12 6 13 15 15 14 13 10 9 7 5 5 7 7 8 9 10 10 12 13 13 13 14 15 15 16 17 18 19 21 23 24 25 26 27 28 28 29 32 33 34 36
9 12 10 8 8 6 11 5 11 11 17 17 15 12 10 7 5 4 4 4 5 6 8 10 11 12 13 13 14 16 16 17 18 19 20 20 21 22 23 25 26 28 28 27 28 31 34 37 35
10 11 13 8 12 8 10 8 2 1 10 13 13 10 8 5 4 3 3 5 7 9 11 11 11 13 13 13 14 14 14 15 17 19 20 22 23 24 24 25 26 27 27 27 29 31 33 35 36
Wind_Direction
288 245 238 241 243 233 247 239 297 179 186 25 316 293 316 303 331 350 19 151 168 160 164 166 172 171 177 182 185 180 176 172 170 169 167 165 163 160 158 158 154 152 153 152 152 153 150 149 144
228 215 216 229 244 233 232 232 218 174 12 327 305 315 284 47 18 351 307 152 162 159 162 167 176 174 177 184 184 179 176 175 174 172 169 167 167 164 164 165 162 159 162 162 158 154 154 149 145
193 210 237 222 234 243 249 175 240 182 284 347 345 322 2 18 17 353 13 150 154 160 162 169 176 175 178 182 181 178 177 177 177 174 172 171 169 169 168 171 173 172 172 168 161 161 160 158 155
185 191 235 243 239 237 257 212 176 219 199 252 350 290 349 65 340 346 121 149 154 160 163 177 174 176 175 175 176 180 179 180 180 178 177 175 174 172 173 175 177 180 176 169 167 167 166 168 170
206 232 232 237 243 249 202 258 232 263 275 258 327 289 319 62 27 51 145 153 157 161 164 165 174 178 174 174 177 181 185 185 184 183 182 181 179 177 178 179 180 181 177 176 174 176 178 179 180
199 255 228 234 239 235 241 232 253 260 268 276 275 277 300 15 354 148 176 170 165 161 163 166 176 180 180 181 181 185 188 189 190 187 187 187 185 183 183 184 183 185 185 186 185 187 190 192 199
243 219 240 251 259 261 254 216 235 247 255 259 271 264 329 19 53 132 173 172 170 165 163 166 171 179 183 188 189 188 187 189 191 191 191 191 190 190 191 190 192 192 194 198 200 200 201 206 215
249 250 246 244 246 252 179 221 253 254 257 316 248 235 183 43 50 150 171 173 169 168 169 171 173 177 180 187 193 191 190 191 190 195 196 193 190 195 200 205 205 206 206 209 211 213 214 219 227
235 236 238 236 237 248 142 230 161 309 259 248 274 278 317 327 209 178 179 172 171 170 173 176 177 180 183 185 192 192 193 195 195 192 193 193 192 198 205 206 222 216 218 222 224 225 228 230 235
214 226 243 277 256 254 240 240 274 246 249 241 243 251 259 254 234 207 205 183 174 175 176 180 181 186 186 187 191 190 193 194 195 194 192 188 192 199 200 210 220 220 222 225 230 234 237 242 243
211 240 242 242 255 267 275 264 237 243 248 252 250 243 205 238 240 256 205 201 187 179 182 187 188 189 192 194 194 195 199 198 201 199 196 195 197 202 207 208 213 219 234 232 237 235 236 237 245
234 234 252 265 236 243 251 278 251 243 260 261 250 230 240 251 247 221 236 177 188 190 192 189 190 191 197 201 205 208 208 206 206 205 199 196 202 207 211 219 221 212 216 224 229 234 234 238 240
230 247 237 238 242 246 263 263 278 266 252 246 241 222 240 242 243 229 213 165 164 176 189 194 194 202 205 206 209 217 220 218 217 213 214 206 206 209 213 220 229 233 227 225 227 232 239 245 247
192 238 239 239 241 222 238 253 254 256 235 220 222 233 235 239 224 189 190 172 158 128 163 195 200 207 213 217 219 218 218 226 226 224 217 221 222 216 217 222 229 237 243 239 239 240 243 249 256
243 244 235 231 230 222 228 245 232 259 189 217 224 227 223 226 189 182 180 175 169 163 162 183 201 211 217 221 225 228 223 224 224 225 217 217 223 225 224 230 232 237 241 243 244 245 245 247 256
228 231 245 204 185 177 213 216 170 97 209 228 215 208 203 197 194 196 197 208 202 219 224 204 202 199 219 231 233 232 233 228 228 232 230 221 223 222 230 242 239 234 240 243 243 243 244 250 254
208 237 212 163 196 155 214 239 218 203 245 244 232 221 223 217 191 208 220 214 226 233 196 199 202 225 221 249 248 244 239 236 231 231 228 232 226 227 229 242 247 247 244 246 245 244 246 239 250
209 225 219 237 158 210 219 242 252 222 234 243 240 237 220 226 212 203 218 220 225 218 228 214 214 209 217 336 274 257 242 241 238 238 232 236 235 227 286 268 248 233 247 248 240 240 241 237 235
259 236 245 229 193 254 245 275 250 208 231 240 246 243 234 228 319 262 239 230 219 242 201 183 266 227 181 231 282 268 252 249 250 247 241 234 233 222 218 231 227 233 250 237 229 222 238 227 218
232 238 240 249 244 227 242 250 229 219 165 356 316 235 211 190 158 83 127 162 178 159 157 108 46 59 199 216 230 237 250 256 250 256 253 252 243 238 233 228 228 226 227 237 231 221 220 223 219
230 242 244 252 166 226 255 244 216 179 175 110 91 134 145 134 124 120 122 119 109 91 85 86 78 80 154 211 211 224 235 251 257 252 246 249 250 251 247 247 233 233 232 231 231 228 217 230 260
234 219 250 251 226 229 195 249 185 187 170 119 99 103 107 110 111 110 104 97 97 90 85 81 78 75 64 76 207 228 248 259 11 295 350 280 259 262 266 255 253 249 240 232 231 235 234 246 247
237 233 227 243 233 248 193 242 179 164 188 146 115 101 100 102 105 99 94 91 89 86 79 77 75 72 66 63 58 66 62 48 9 343 339 301 271 266 270 277 270 259 253 244 243 244 239 236 239
219 201 213 219 221 226 232 212 231 181 197 150 134 121 121 116 109 104 98 93 87 87 85 75 70 58 50 52 43 40 24 9 345 326 309 280 279 275 267 265 263 258 254 250 249 246 245 243 245
210 213 203 203 209 232 211 195 251 94 135 166 150 134 129 128 118 107 96 89 77 66 68 67 50 46 40 32 22 8 351 333 320 312 301 295 289 280 276 279 280 270 262 260 259 258 253 249 245
202 215 235 229 222 216 155 216 210 95 204 137 143 134 130 127 114 98 84 73 63 49 37 35 26 12 3 358 349 339 333 323 311 306 309 301 295 289 289 285 282 281 278 273 269 264 258 255 248
206 225 258 254 230 261 197 153 150 146 146 154 154 152 139 128 116 97 78 57 39 23 17 10 3 355 349 343 336 330 326 321 315 311 305 299 296 295 294 293 291 285 280 275 271 265 262 256 251
204 243 202 225 239 241 247 226 230 179 177 175 169 164 152 147 130 103 75 47 30 11 0 358 351 343 336 331 328 323 320 315 310 305 302 300 297 296 294 290 286 284 281 277 272 268 264 258 254
176 212 225 240 221 247 261 262 2 190 181 179 178 166 162 153 130 96 56 38 13 0 352 344 338 332 327 325 321 317 315 314 312 308 304 298 295 294 292 291 292 286 282 280 276 272 268 267 265
252 227 217 215 231 250 276 273 47 254 167 181 171 173 163 155 131 84 27 6 357 350 341 335 330 323 319 315 312 311 310 308 305 302 299 299 297 296 292 288 284 283 281 280 277 274 273 269 265
Height
792 793 791 786 794 780 775 764 756 761 762 753 750 752 755 746 750 761 753 754 756 760 767 770 773 775 779 782 785 788 791 794 797 799 802 804 806 808 809 811 812 814 816 817 818 818 819 820 820
791 792 789 776 792 783 770 753 767 759 757 752 749 749 745 746 742 743 748 756 758 762 768 772 774 776 779 782 784 789 792 795 798 801 803 805 808 809 811 813 814 815 817 818 819 820 821 822 823
789 789 780 779 778 778 765 752 755 759 756 756 756 748 749 751 747 750 754 757 759 763 768 772 775 777 780 782 786 789 792 796 799 802 804 807 808 810 813 814 816 817 818 819 820 821 822 823 824
786 784 780 783 772 760 759 757 758 761 755 754 754 757 747 752 755 756 757 758 760 764 768 770 773 778 781 784 787 791 793 796 799 803 805 807 809 811 813 815 817 818 820 821 821 822 823 824 825
784 773 778 779 766 754 767 761 758 763 759 756 756 760 753 753 757 758 759 760 762 765 769 771 775 779 782 785 789 792 796 797 800 803 806 808 809 812 814 816 817 819 820 821 822 824 825 826 827
779 770 778 774 760 752 760 764 763 763 759 757 760 756 751 754 756 758 760 760 762 765 770 774 776 780 783 786 789 792 796 798 801 802 806 808 810 812 814 816 817 819 821 822 823 824 826 828 828
776 774 770 761 757 758 758 757 764 760 759 758 752 762 748 750 757 759 760 760 762 765 770 775 779 781 784 788 790 792 795 798 801 803 805 808 811 814 815 817 818 819 821 823 824 825 826 828 829
774 770 767 765 765 763 752 761 756 759 763 753 757 758 754 755 759 759 760 761 761 765 769 774 778 782 785 788 792 794 796 799 800 803 806 808 809 813 817 819 819 820 821 823 824 826 826 827 828
777 776 768 762 765 761 754 762 761 759 762 760 755 754 754 757 759 760 759 760 761 764 768 772 777 781 785 788 791 794 797 799 801 802 803 807 812 812 814 817 819 820 821 823 824 825 827 827 826
775 772 762 750 753 759 755 760 758 767 761 761 760 756 755 756 756 756 758 756 759 763 767 771 776 780 783 786 790 794 796 798 800 802 803 806 809 812 814 816 817 818 819 821 822 824 826 826 827
768 768 752 760 761 760 761 759 753 762 764 756 757 751 750 753 753 753 751 754 757 763 768 771 776 779 782 785 788 790 793 795 799 801 803 805 807 810 813 814 815 817 818 820 820 822 822 824 825
771 760 758 756 760 762 763 756 758 755 753 748 747 747 748 751 750 750 749 751 758 763 768 771 775 778 781 783 786 789 792 794 796 799 801 803 806 808 810 812 813 813 815 816 818 819 820 821 821
768 757 756 756 757 757 756 756 755 751 743 743 743 744 748 746 746 747 748 750 756 761 767 770 773 776 779 781 784 788 791 793 795 798 801 802 803 805 807 809 810 812 811 812 814 816 818 819 819
753 756 753 751 752 752 756 750 753 741 735 738 740 741 739 739 740 743 747 751 756 758 764 768 771 775 778 781 784 787 789 792 794 796 796 801 802 802 803 806 807 809 811 810 810 812 814 814 816
758 764 753 749 748 750 749 754 751 735 732 733 734 734 734 735 738 742 744 749 753 757 760 764 769 772 774 779 782 785 786 788 789 792 793 794 798 800 800 801 803 805 807 809 809 809 810 810 811
761 757 757 735 744 745 749 742 732 731 732 730 728 728 731 732 735 737 740 745 749 751 755 760 764 768 772 775 778 780 782 783 784 787 789 790 793 794 797 798 799 799 803 805 804 804 805 805 805
759 753 748 741 737 741 746 739 733 725 729 729 727 726 727 728 733 736 737 738 743 746 749 755 759 765 767 771 776 777 779 780 781 782 785 787 786 789 793 795 796 797 798 801 799 798 800 798 800
760 757 745 746 741 739 741 739 730 723 727 726 724 722 723 725 727 733 736 736 742 747 749 753 756 755 763 766 774 774 775 777 777 778 778 781 782 784 791 795 794 792 793 794 792 792 794 794 794
745 747 748 740 735 747 740 737 729 722 725 725 723 723 722 727 729 734 737 738 743 747 750 754 757 758 755 762 771 773 774 776 774 774 774 775 778 780 783 786 784 787 787 787 786 785 793 789 791
749 750 748 741 737 743 736 738 725 725 726 728 730 725 721 725 731 736 738 742 745 749 750 751 754 755 757 762 768 772 773 771 770 769 769 771 772 774 775 773 773 775 779 779 782 785 785 784 785
748 748 745 748 740 737 738 741 731 726 724 726 729 729 728 727 732 738 742 745 747 751 752 754 756 758 762 764 765 768 767 767 766 766 766 767 768 768 766 766 759 766 769 774 777 778 778 778 783
749 738 743 743 747 747 729 744 723 722 725 728 730 729 729 731 736 742 747 749 752 754 757 758 759 760 761 763 766 763 764 761 762 763 764 765 765 765 763 766 763 761 765 768 772 776 774 773 776
740 732 737 740 738 733 737 744 714 719 725 732 733 734 734 737 743 747 750 754 754 757 759 761 763 764 766 766 766 766 767 766 765 764 764 765 767 765 762 760 759 760 765 766 767 767 769 770 767
725 734 736 737 736 749 729 734 719 714 717 731 735 738 742 746 750 753 756 758 760 760 761 765 766 767 766 766 768 767 768 766 767 766 766 765 766 765 763 763 763 763 763 761 761 761 763 762 758
726 733 742 749 745 741 712 729 719 714 715 723 734 742 746 748 750 752 754 757 762 765 764 765 767 768 768 769 768 767 767 766 766 765 764 766 762 763 762 762 762 760 759 758 756 755 752 751 749
722 721 728 747 735 727 722 736 720 717 720 722 734 741 748 750 753 756 759 759 762 764 766 764 765 766 765 765 765 765 765 764 764 765 761 759 759 759 757 757 754 756 754 751 751 748 744 743 740
718 723 708 727 729 733 727 721 727 729 731 736 741 745 749 753 756 758 760 761 761 764 765 764 764 765 765 764 763 763 762 762 760 760 759 757 756 754 751 749 747 748 748 746 743 740 736 734 732
714 710 733 726 753 756 729 721 725 732 733 736 741 744 750 754 756 759 761 763 764 766 767 766 766 765 764 763 763 762 762 761 760 759 757 756 754 752 748 747 746 742 741 739 735 731 728 725 723
717 721 721 724 739 747 744 727 718 713 720 731 737 743 750 753 755 759 761 763 765 766 766 766 765 765 764 763 762 761 760 759 757 755 754 754 753 750 746 742 738 737 735 731 728 724 722 718 714
703 709 713 736 741 731 728 728 726 720 716 727 735 746 750 753 755 758 761 763 763 765 765 766 765 765 763 762 762 761 759 758 756 754 752 750 747 744 741 738 736 732 728 725 722 720 717 710 706